date,time,SUV Intensity [MED/Hr],UV Index,Daily total [MED],Since Last [MED]
13/09/2022,00:00:34,-0.000,0.0,0.0,0.0
13/09/2022,00:01:34,0.000,0.0,0.0,0.0
13/09/2022,00:02:42,0.001,0.0,0.0,0.0
13/09/2022,00:03:35,0.000,0.0,0.0,0.0
13/09/2022,00:04:43,-0.000,0.0,0.0,0.0
13/09/2022,00:05:35,0.000,0.0,0.0,0.0
13/09/2022,00:06:34,0.000,0.0,0.0,0.0
13/09/2022,00:07:34,0.000,0.0,0.0,0.0
13/09/2022,00:08:34,0.000,0.0,0.0,0.0
13/09/2022,00:09:35,-0.001,0.0,0.0,0.0
13/09/2022,00:10:34,0.001,0.0,0.0,0.0
13/09/2022,00:11:34,0.000,0.0,0.0,0.0
13/09/2022,00:12:34,0.001,0.0,0.0,0.0
13/09/2022,00:13:34,0.000,0.0,0.0,0.0
13/09/2022,00:14:34,0.000,0.0,0.0,0.0
13/09/2022,00:15:35,-0.000,0.0,0.0,0.0
13/09/2022,00:16:34,0.000,0.0,0.0,0.0
13/09/2022,00:17:34,0.000,0.0,0.0,0.0
13/09/2022,00:18:43,0.001,0.0,0.0,0.0
13/09/2022,00:19:34,-0.000,0.0,0.0,0.0
13/09/2022,00:20:35,0.000,0.0,0.0,0.0
13/09/2022,00:21:43,0.000,0.0,0.0,0.0
13/09/2022,00:22:34,0.000,0.0,0.0,0.0
13/09/2022,00:23:34,0.000,0.0,0.0,0.0
13/09/2022,00:24:34,-0.001,0.0,0.0,0.0
13/09/2022,00:25:35,-0.001,0.0,0.0,0.0
13/09/2022,00:26:35,0.000,0.0,0.0,0.0
13/09/2022,00:27:35,0.000,0.0,0.0,0.0
13/09/2022,00:28:34,0.001,0.0,0.0,0.0
13/09/2022,00:29:43,0.000,0.0,0.0,0.0
13/09/2022,00:30:34,0.000,0.0,0.0,0.0
13/09/2022,00:31:34,-0.000,0.0,0.0,0.0
13/09/2022,00:32:42,0.000,0.0,0.0,0.0
13/09/2022,00:33:35,0.000,0.0,0.0,0.0
13/09/2022,00:34:34,0.000,0.0,0.0,0.0
13/09/2022,00:35:35,0.001,0.0,0.0,0.0
13/09/2022,00:36:35,0.001,0.0,0.0,0.0
13/09/2022,00:37:35,0.001,0.0,0.0,0.0
13/09/2022,00:38:34,0.000,0.0,0.0,0.0
13/09/2022,00:39:35,0.001,0.0,0.0,0.0
13/09/2022,00:40:34,0.000,0.0,0.0,0.0
13/09/2022,00:41:35,0.000,0.0,0.0,0.0
13/09/2022,00:42:34,0.000,0.0,0.0,0.0
13/09/2022,00:43:42,0.001,0.0,0.0,0.0
13/09/2022,00:44:35,-0.000,0.0,0.0,0.0
13/09/2022,00:45:35,-0.001,0.0,0.0,0.0
13/09/2022,00:46:43,0.001,0.0,0.0,0.0
13/09/2022,00:47:35,0.000,0.0,0.0,0.0
13/09/2022,00:48:34,0.000,0.0,0.0,0.0
13/09/2022,00:49:43,0.000,0.0,0.0,0.0
13/09/2022,00:50:34,0.000,0.0,0.0,0.0
13/09/2022,00:51:34,0.000,0.0,0.0,0.0
13/09/2022,00:52:35,0.000,0.0,0.0,0.0
13/09/2022,00:53:35,0.000,0.0,0.0,0.0
13/09/2022,00:54:35,0.001,0.0,0.0,0.0
13/09/2022,00:55:35,0.001,0.0,0.0,0.0
13/09/2022,00:56:35,-0.001,0.0,0.0,0.0
13/09/2022,00:57:34,0.000,0.0,0.0,0.0
13/09/2022,00:58:34,0.000,0.0,0.0,0.0
13/09/2022,00:59:35,0.000,0.0,0.0,0.0
13/09/2022,01:00:34,0.001,0.0,0.0,0.0
13/09/2022,01:01:34,-0.001,0.0,0.0,0.0
13/09/2022,01:02:34,0.000,0.0,0.0,0.0
13/09/2022,01:03:34,0.001,0.0,0.0,0.0
13/09/2022,01:04:35,0.001,0.0,0.0,0.0
13/09/2022,01:05:34,-0.001,0.0,0.0,0.0
13/09/2022,01:06:35,0.000,0.0,0.0,0.0
13/09/2022,01:07:34,0.000,0.0,0.0,0.0
13/09/2022,01:08:34,-0.000,0.0,0.0,0.0
13/09/2022,01:09:35,0.000,0.0,0.0,0.0
13/09/2022,01:10:35,0.000,0.0,0.0,0.0
13/09/2022,01:11:35,0.000,0.0,0.0,0.0
13/09/2022,01:12:43,0.001,0.0,0.0,0.0
13/09/2022,01:13:34,0.000,0.0,0.0,0.0
13/09/2022,01:14:35,0.001,0.0,0.0,0.0
13/09/2022,01:15:34,0.000,0.0,0.0,0.0
13/09/2022,01:16:34,0.000,0.0,0.0,0.0
13/09/2022,01:17:34,0.000,0.0,0.0,0.0
13/09/2022,01:18:35,0.000,0.0,0.0,0.0
13/09/2022,01:19:34,0.001,0.0,0.0,0.0
13/09/2022,01:20:34,0.000,0.0,0.0,0.0
13/09/2022,01:21:35,0.000,0.0,0.0,0.0
13/09/2022,01:22:34,0.000,0.0,0.0,0.0
13/09/2022,01:23:34,-0.000,0.0,0.0,0.0
13/09/2022,01:24:34,0.001,0.0,0.0,0.0
13/09/2022,01:25:34,0.000,0.0,0.0,0.0
13/09/2022,01:26:35,0.000,0.0,0.0,0.0
13/09/2022,01:27:35,0.000,0.0,0.0,0.0
13/09/2022,01:28:35,0.001,0.0,0.0,0.0
13/09/2022,01:29:35,0.001,0.0,0.0,0.0
13/09/2022,01:30:35,0.000,0.0,0.0,0.0
13/09/2022,01:31:35,0.000,0.0,0.0,0.0
13/09/2022,01:32:35,0.000,0.0,0.0,0.0
13/09/2022,01:33:34,0.001,0.0,0.0,0.0
13/09/2022,01:34:34,0.001,0.0,0.0,0.0
13/09/2022,01:35:43,0.000,0.0,0.0,0.0
13/09/2022,01:36:34,0.000,0.0,0.0,0.0
13/09/2022,01:37:34,-0.001,0.0,0.0,0.0
13/09/2022,01:38:35,0.001,0.0,0.0,0.0
13/09/2022,01:39:34,0.000,0.0,0.0,0.0
13/09/2022,01:40:42,0.000,0.0,0.0,0.0
13/09/2022,01:41:35,0.000,0.0,0.0,0.0
13/09/2022,01:42:36,0.000,0.0,0.0,0.0
13/09/2022,01:43:43,0.000,0.0,0.0,0.0
13/09/2022,01:44:34,0.000,0.0,0.0,0.0
13/09/2022,01:45:35,0.000,0.0,0.0,0.0
13/09/2022,01:46:34,0.000,0.0,0.0,0.0
13/09/2022,01:47:34,-0.001,0.0,0.0,0.0
13/09/2022,01:48:35,0.000,0.0,0.0,0.0
13/09/2022,01:49:34,0.001,0.0,0.0,0.0
13/09/2022,01:50:34,0.001,0.0,0.0,0.0
13/09/2022,01:51:35,0.000,0.0,0.0,0.0
13/09/2022,01:52:35,0.000,0.0,0.0,0.0
13/09/2022,01:53:34,0.001,0.0,0.0,0.0
13/09/2022,01:54:35,-0.000,0.0,0.0,0.0
13/09/2022,01:55:34,0.000,0.0,0.0,0.0
13/09/2022,01:56:35,0.000,0.0,0.0,0.0
13/09/2022,01:57:35,0.000,0.0,0.0,0.0
13/09/2022,01:58:34,0.001,0.0,0.0,0.0
13/09/2022,01:59:34,0.000,0.0,0.0,0.0
13/09/2022,02:00:35,0.001,0.0,0.0,0.0
13/09/2022,02:01:34,0.000,0.0,0.0,0.0
13/09/2022,02:02:35,0.001,0.0,0.0,0.0
13/09/2022,02:03:42,0.000,0.0,0.0,0.0
13/09/2022,02:04:35,0.000,0.0,0.0,0.0
13/09/2022,02:05:35,0.000,0.0,0.0,0.0
13/09/2022,02:06:42,0.000,0.0,0.0,0.0
13/09/2022,02:07:34,0.001,0.0,0.0,0.0
13/09/2022,02:08:34,-0.000,0.0,0.0,0.0
13/09/2022,02:09:35,0.000,0.0,0.0,0.0
13/09/2022,02:10:35,0.001,0.0,0.0,0.0
13/09/2022,02:11:35,0.001,0.0,0.0,0.0
13/09/2022,02:12:43,0.001,0.0,0.0,0.0
13/09/2022,02:13:34,0.001,0.0,0.0,0.0
13/09/2022,02:14:35,-0.000,0.0,0.0,0.0
13/09/2022,02:15:34,0.001,0.0,0.0,0.0
13/09/2022,02:16:34,0.001,0.0,0.0,0.0
13/09/2022,02:17:35,-0.000,0.0,0.0,0.0
13/09/2022,02:18:43,-0.000,0.0,0.0,0.0
13/09/2022,02:19:35,0.001,0.0,0.0,0.0
13/09/2022,02:20:34,0.001,0.0,0.0,0.0
13/09/2022,02:21:35,0.001,0.0,0.0,0.0
13/09/2022,02:22:34,0.001,0.0,0.0,0.0
13/09/2022,02:23:34,0.001,0.0,0.0,0.0
13/09/2022,02:24:35,0.001,0.0,0.0,0.0
13/09/2022,02:25:35,0.001,0.0,0.0,0.0
13/09/2022,02:26:43,0.001,0.0,0.0,0.0
13/09/2022,02:27:43,0.001,0.0,0.0,0.0
13/09/2022,02:28:35,0.001,0.0,0.0,0.0
13/09/2022,02:29:35,0.001,0.0,0.0,0.0
13/09/2022,02:30:35,0.001,0.0,0.0,0.0
13/09/2022,02:31:35,0.001,0.0,0.0,0.0
13/09/2022,02:32:34,0.001,0.0,0.0,0.0
13/09/2022,02:33:35,0.001,0.0,0.0,0.0
13/09/2022,02:34:34,0.001,0.0,0.0,0.0
13/09/2022,02:35:34,0.003,0.0,0.0,0.0
13/09/2022,02:36:35,0.001,0.0,0.0,0.0
13/09/2022,02:37:34,0.001,0.0,0.0,0.0
13/09/2022,02:38:35,0.001,0.0,0.0,0.0
13/09/2022,02:39:34,0.001,0.0,0.0,0.0
13/09/2022,02:40:34,0.001,0.0,0.0,0.0
13/09/2022,02:41:35,0.001,0.0,0.0,0.0
13/09/2022,02:42:34,0.001,0.0,0.0,0.0
13/09/2022,02:43:43,0.001,0.0,0.0,0.0
13/09/2022,02:44:34,0.001,0.0,0.0,0.0
13/09/2022,02:45:35,0.001,0.0,0.0,0.0
13/09/2022,02:46:34,0.002,0.0,0.0,0.0
13/09/2022,02:47:34,0.002,0.0,0.0,0.0
13/09/2022,02:48:35,0.001,0.0,0.0,0.0
13/09/2022,02:49:35,0.002,0.0,0.0,0.0
13/09/2022,02:50:35,0.001,0.0,0.0,0.0
13/09/2022,02:51:35,0.001,0.0,0.0,0.0
13/09/2022,02:52:35,0.001,0.0,0.0,0.0
13/09/2022,02:53:35,0.002,0.0,0.0,0.0
13/09/2022,02:54:35,0.001,0.0,0.0,0.0
13/09/2022,02:55:35,0.001,0.0,0.0,0.0
13/09/2022,02:56:35,0.003,0.0,0.0,0.0
13/09/2022,02:57:34,0.001,0.0,0.0,0.0
13/09/2022,02:58:35,0.001,0.0,0.0,0.0
13/09/2022,02:59:34,0.002,0.0,0.0,0.0
13/09/2022,03:00:34,0.002,0.0,0.0,0.0
13/09/2022,03:01:35,0.002,0.0,0.0,0.0
13/09/2022,03:02:35,0.002,0.0,0.0,0.0
13/09/2022,03:03:36,0.002,0.0,0.0,0.0
13/09/2022,03:04:34,0.001,0.0,0.0,0.0
13/09/2022,03:05:35,0.001,0.0,0.0,0.0
13/09/2022,03:06:43,0.001,0.0,0.0,0.0
13/09/2022,03:07:34,0.002,0.0,0.0,0.0
13/09/2022,03:08:35,0.002,0.0,0.0,0.0
13/09/2022,03:09:43,0.002,0.0,0.0,0.0
13/09/2022,03:10:35,0.002,0.0,0.0,0.0
13/09/2022,03:11:34,0.001,0.0,0.0,0.0
13/09/2022,03:12:35,0.002,0.0,0.0,0.0
13/09/2022,03:13:35,0.001,0.0,0.0,0.0
13/09/2022,03:14:34,0.002,0.0,0.0,0.0
13/09/2022,03:15:34,0.002,0.0,0.0,0.0
13/09/2022,03:16:35,0.001,0.0,0.0,0.0
13/09/2022,03:17:34,0.002,0.0,0.0,0.0
13/09/2022,03:18:35,0.001,0.0,0.0,0.0
13/09/2022,03:19:35,0.002,0.0,0.0,0.0
13/09/2022,03:20:35,0.002,0.0,0.0,0.0
13/09/2022,03:21:35,0.002,0.0,0.0,0.0
13/09/2022,03:22:34,0.001,0.0,0.0,0.0
13/09/2022,03:23:35,0.002,0.0,0.0,0.0
13/09/2022,03:24:35,0.002,0.0,0.0,0.0
13/09/2022,03:25:34,0.002,0.0,0.0,0.0
13/09/2022,03:26:35,0.002,0.0,0.0,0.0
13/09/2022,03:27:34,0.002,0.0,0.0,0.0
13/09/2022,03:28:34,0.002,0.0,0.0,0.0
13/09/2022,03:29:35,0.002,0.0,0.0,0.0
13/09/2022,03:30:35,0.002,0.0,0.0,0.0
13/09/2022,03:31:35,0.002,0.0,0.0,0.0
13/09/2022,03:32:43,0.001,0.0,0.0,0.0
13/09/2022,03:33:34,0.001,0.0,0.0,0.0
13/09/2022,03:34:35,0.002,0.0,0.0,0.0
13/09/2022,03:35:35,0.002,0.0,0.0,0.0
13/09/2022,03:36:35,0.002,0.0,0.0,0.0
13/09/2022,03:37:35,0.002,0.0,0.0,0.0
13/09/2022,03:38:34,0.002,0.0,0.0,0.0
13/09/2022,03:39:35,0.002,0.0,0.0,0.0
13/09/2022,03:40:34,0.001,0.0,0.0,0.0
13/09/2022,03:41:34,0.002,0.0,0.0,0.0
13/09/2022,03:42:35,0.002,0.0,0.0,0.0
13/09/2022,03:43:35,0.003,0.0,0.0,0.0
13/09/2022,03:44:35,0.002,0.0,0.0,0.0
13/09/2022,03:45:34,0.001,0.0,0.0,0.0
13/09/2022,03:46:34,0.001,0.0,0.0,0.0
13/09/2022,03:47:35,0.002,0.0,0.0,0.0
13/09/2022,03:48:34,0.002,0.0,0.0,0.0
13/09/2022,03:49:34,0.002,0.0,0.0,0.0
13/09/2022,03:50:35,0.001,0.0,0.0,0.0
13/09/2022,03:51:35,0.003,0.0,0.0,0.0
13/09/2022,03:52:35,0.002,0.0,0.0,0.0
13/09/2022,03:53:36,0.002,0.0,0.0,0.0
13/09/2022,03:54:35,0.001,0.0,0.0,0.0
13/09/2022,03:55:43,0.002,0.0,0.0,0.0
13/09/2022,03:56:35,0.002,0.0,0.0,0.0
13/09/2022,03:57:35,0.002,0.0,0.0,0.0
13/09/2022,03:58:43,0.001,0.0,0.0,0.0
13/09/2022,03:59:34,0.002,0.0,0.0,0.0
13/09/2022,04:00:34,0.003,0.0,0.0,0.0
13/09/2022,04:01:35,0.002,0.0,0.0,0.0
13/09/2022,04:02:35,0.002,0.0,0.0,0.0
13/09/2022,04:03:35,0.002,0.0,0.0,0.0
13/09/2022,04:04:34,0.002,0.0,0.0,0.0
13/09/2022,04:05:34,0.001,0.0,0.0,0.0
13/09/2022,04:06:34,0.002,0.0,0.0,0.0
13/09/2022,04:07:35,0.002,0.0,0.0,0.0
13/09/2022,04:08:35,0.002,0.0,0.0,0.0
13/09/2022,04:09:28,0.002,0.0,0.0,0.0
13/09/2022,04:10:36,0.002,0.0,0.0,0.0
13/09/2022,04:11:35,0.001,0.0,0.0,0.0
13/09/2022,04:12:34,0.002,0.0,0.0,0.0
13/09/2022,04:13:35,0.003,0.0,0.0,0.0
13/09/2022,04:14:34,0.002,0.0,0.0,0.0
13/09/2022,04:15:43,0.002,0.0,0.0,0.0
13/09/2022,04:16:34,0.002,0.0,0.0,0.0
13/09/2022,04:17:34,0.002,0.0,0.0,0.0
13/09/2022,04:18:43,0.001,0.0,0.0,0.0
13/09/2022,04:19:35,0.001,0.0,0.0,0.0
13/09/2022,04:20:35,0.002,0.0,0.0,0.0
13/09/2022,04:21:42,0.001,0.0,0.0,0.0
13/09/2022,04:22:35,0.002,0.0,0.0,0.0
13/09/2022,04:23:35,0.002,0.0,0.0,0.0
13/09/2022,04:24:34,0.002,0.0,0.0,0.0
13/09/2022,04:25:36,0.002,0.0,0.0,0.0
13/09/2022,04:26:34,0.002,0.0,0.0,0.0
13/09/2022,04:27:35,0.002,0.0,0.0,0.0
13/09/2022,04:28:35,0.003,0.0,0.0,0.0
13/09/2022,04:29:35,0.002,0.0,0.0,0.0
13/09/2022,04:30:35,0.003,0.0,0.0,0.0
13/09/2022,04:31:35,0.002,0.0,0.0,0.0
13/09/2022,04:32:35,0.002,0.0,0.0,0.0
13/09/2022,04:33:35,0.002,0.0,0.0,0.0
13/09/2022,04:34:34,0.002,0.0,0.0,0.0
13/09/2022,04:35:36,0.001,0.0,0.0,0.0
13/09/2022,04:36:34,0.002,0.0,0.0,0.0
13/09/2022,04:37:35,0.002,0.0,0.0,0.0
13/09/2022,04:38:43,0.001,0.0,0.0,0.0
13/09/2022,04:39:35,0.002,0.0,0.0,0.0
13/09/2022,04:40:35,0.002,0.0,0.0,0.0
13/09/2022,04:41:34,0.002,0.0,0.0,0.0
13/09/2022,04:42:34,0.002,0.0,0.0,0.0
13/09/2022,04:43:35,0.002,0.0,0.0,0.0
13/09/2022,04:44:34,0.002,0.0,0.0,0.0
13/09/2022,04:45:35,0.002,0.0,0.0,0.0
13/09/2022,04:46:35,0.002,0.0,0.0,0.0
13/09/2022,04:47:35,0.002,0.0,0.0,0.0
13/09/2022,04:48:35,0.001,0.0,0.0,0.0
13/09/2022,04:49:34,0.002,0.0,0.0,0.0
13/09/2022,04:50:35,0.002,0.0,0.0,0.0
13/09/2022,04:51:35,0.002,0.0,0.0,0.0
13/09/2022,04:52:35,0.002,0.0,0.0,0.0
13/09/2022,04:53:35,0.001,0.0,0.0,0.0
13/09/2022,04:54:35,0.002,0.0,0.0,0.0
13/09/2022,04:55:35,0.002,0.0,0.0,0.0
13/09/2022,04:56:44,0.002,0.0,0.0,0.0
13/09/2022,04:57:35,0.002,0.0,0.0,0.0
13/09/2022,04:58:35,0.001,0.0,0.0,0.0
13/09/2022,04:59:43,0.002,0.0,0.0,0.0
13/09/2022,05:00:35,0.002,0.0,0.0,0.0
13/09/2022,05:01:34,0.001,0.0,0.0,0.0
13/09/2022,05:02:35,0.002,0.0,0.0,0.0
13/09/2022,05:03:35,0.002,0.0,0.0,0.0
13/09/2022,05:04:36,0.003,0.0,0.0,0.0
13/09/2022,05:05:34,0.002,0.0,0.0,0.0
13/09/2022,05:06:34,0.001,0.0,0.0,0.0
13/09/2022,05:07:35,0.002,0.0,0.0,0.0
13/09/2022,05:08:35,0.002,0.0,0.0,0.0
13/09/2022,05:09:35,0.002,0.0,0.0,0.0
13/09/2022,05:10:35,0.002,0.0,0.0,0.0
13/09/2022,05:11:35,0.002,0.0,0.0,0.0
13/09/2022,05:12:34,0.002,0.0,0.0,0.0
13/09/2022,05:13:35,0.002,0.0,0.0,0.0
13/09/2022,05:14:34,0.003,0.0,0.0,0.0
13/09/2022,05:15:34,0.001,0.0,0.0,0.0
13/09/2022,05:16:35,0.002,0.0,0.0,0.0
13/09/2022,05:17:21,0.002,0.0,0.0,0.0
13/09/2022,05:18:35,0.002,0.0,0.0,0.0
13/09/2022,05:19:34,0.002,0.0,0.0,0.0
13/09/2022,05:20:35,0.002,0.0,0.0,0.0
13/09/2022,05:21:35,0.002,0.0,0.0,0.0
13/09/2022,05:22:43,0.002,0.0,0.0,0.0
13/09/2022,05:23:35,0.003,0.0,0.0,0.0
13/09/2022,05:24:35,0.003,0.0,0.0,0.0
13/09/2022,05:25:35,0.003,0.0,0.0,0.0
13/09/2022,05:26:35,0.002,0.0,0.0,0.0
13/09/2022,05:27:35,0.003,0.0,0.0,0.0
13/09/2022,05:28:35,0.002,0.0,0.0,0.0
13/09/2022,05:29:34,0.003,0.0,0.0,0.0
13/09/2022,05:30:35,0.003,0.0,0.0,0.0
13/09/2022,05:31:35,0.002,0.0,0.0,0.0
13/09/2022,05:32:35,0.004,0.0,0.0,0.0
13/09/2022,05:33:34,0.003,0.0,0.0,0.0
13/09/2022,05:34:34,0.004,0.0,0.0,0.0
13/09/2022,05:35:35,0.005,0.0,0.0,0.0
13/09/2022,05:36:35,0.003,0.0,0.0,0.0
13/09/2022,05:37:35,0.004,0.0,0.0,0.0
13/09/2022,05:38:35,0.005,0.0,0.0,0.0
13/09/2022,05:39:35,0.005,0.0,0.0,0.0
13/09/2022,05:40:35,0.005,0.0,0.0,0.0
13/09/2022,05:41:35,0.005,0.0,0.0,0.0
13/09/2022,05:42:43,0.005,0.0,0.0,0.0
13/09/2022,05:43:35,0.006,0.0,0.0,0.0
13/09/2022,05:44:35,0.006,0.0,0.0,0.0
13/09/2022,05:45:43,0.005,0.0,0.0,0.0
13/09/2022,05:46:35,0.005,0.0,0.0,0.0
13/09/2022,05:47:37,0.006,0.0,0.0,0.0
13/09/2022,05:48:44,0.006,0.0,0.0,0.0
13/09/2022,05:49:35,0.007,0.0,0.0,0.0
13/09/2022,05:50:35,0.007,0.0,0.001,0.001
13/09/2022,05:51:35,0.007,0.0,0.001,0.0
13/09/2022,05:52:35,0.008,0.0,0.001,0.0
13/09/2022,05:53:35,0.008,0.0,0.001,0.0
13/09/2022,05:54:26,0.009,0.0,0.001,0.0
13/09/2022,05:55:35,0.009,0.0,0.001,0.0
13/09/2022,05:56:35,0.009,0.0,0.001,0.0
13/09/2022,05:57:35,0.009,0.0,0.001,0.0
13/09/2022,05:58:35,0.009,0.0,0.002,0.001
13/09/2022,05:59:35,0.009,0.0,0.002,0.0
13/09/2022,06:00:35,0.009,0.0,0.002,0.0
13/09/2022,06:01:35,0.009,0.0,0.002,0.0
13/09/2022,06:02:35,0.011,0.0,0.002,0.0
13/09/2022,06:03:34,0.011,0.0,0.002,0.0
13/09/2022,06:04:36,0.010,0.0,0.003,0.001
13/09/2022,06:05:34,0.011,0.0,0.003,0.0
13/09/2022,06:06:35,0.011,0.0,0.003,0.0
13/09/2022,06:07:35,0.012,0.0,0.003,0.0
13/09/2022,06:08:35,0.013,0.0,0.003,0.0
13/09/2022,06:09:35,0.013,0.0,0.004,0.001
13/09/2022,06:10:35,0.013,0.0,0.004,0.0
13/09/2022,06:11:35,0.014,0.0,0.004,0.0
13/09/2022,06:12:35,0.013,0.0,0.004,0.0
13/09/2022,06:13:35,0.014,0.0,0.004,0.0
13/09/2022,06:14:35,0.013,0.0,0.005,0.001
13/09/2022,06:15:35,0.014,0.0,0.005,0.0
13/09/2022,06:16:35,0.014,0.0,0.005,0.0
13/09/2022,06:17:34,0.014,0.0,0.005,0.0
13/09/2022,06:18:35,0.014,0.0,0.006,0.001
13/09/2022,06:19:35,0.015,0.0,0.006,0.0
13/09/2022,06:20:35,0.016,0.0,0.006,0.0
13/09/2022,06:21:35,0.017,0.0,0.006,0.0
13/09/2022,06:22:35,0.017,0.0,0.007,0.001
13/09/2022,06:23:35,0.016,0.0,0.007,0.0
13/09/2022,06:24:35,0.017,0.0,0.007,0.0
13/09/2022,06:25:35,0.018,0.0,0.007,0.0
13/09/2022,06:26:31,0.019,0.0,0.008,0.001
13/09/2022,06:27:36,0.020,0.0,0.008,0.0
13/09/2022,06:28:35,0.021,0.0,0.008,0.0
13/09/2022,06:29:35,0.022,0.0,0.009,0.001
13/09/2022,06:30:35,0.023,0.0,0.009,0.0
13/09/2022,06:31:35,0.022,0.0,0.01,0.001
13/09/2022,06:32:43,0.025,0.0,0.01,0.0
13/09/2022,06:33:35,0.026,0.0,0.01,0.0
13/09/2022,06:34:35,0.026,0.0,0.011,0.001
13/09/2022,06:35:34,0.027,0.0,0.011,0.0
13/09/2022,06:36:35,0.028,0.0,0.012,0.001
13/09/2022,06:37:35,0.029,0.0,0.012,0.0
13/09/2022,06:38:35,0.032,0.0,0.013,0.001
13/09/2022,06:39:35,0.033,0.0,0.013,0.0
13/09/2022,06:40:35,0.033,0.0,0.014,0.001
13/09/2022,06:41:35,0.034,0.0,0.014,0.0
13/09/2022,06:42:35,0.035,0.0,0.015,0.001
13/09/2022,06:43:35,0.036,0.0,0.016,0.001
13/09/2022,06:44:35,0.036,0.0,0.016,0.0
13/09/2022,06:45:35,0.035,0.0,0.017,0.001
13/09/2022,06:46:35,0.036,0.0,0.017,0.0
13/09/2022,06:47:35,0.038,0.0,0.018,0.001
13/09/2022,06:48:35,0.039,0.0,0.019,0.001
13/09/2022,06:49:35,0.040,0.0,0.019,0.0
13/09/2022,06:50:35,0.041,0.0,0.02,0.001
13/09/2022,06:51:35,0.043,0.0,0.021,0.001
13/09/2022,06:52:35,0.045,0.0,0.021,0.0
13/09/2022,06:53:35,0.047,0.0,0.022,0.001
13/09/2022,06:54:35,0.047,0.0,0.023,0.001
13/09/2022,06:55:43,0.051,0.0,0.024,0.001
13/09/2022,06:56:35,0.051,0.0,0.025,0.001
13/09/2022,06:57:35,0.054,0.0,0.025,0.0
13/09/2022,06:58:35,0.055,0.0,0.026,0.001
13/09/2022,06:59:35,0.059,0.0,0.027,0.001
13/09/2022,07:00:35,0.060,0.0,0.028,0.001
13/09/2022,07:01:35,0.059,0.0,0.029,0.001
13/09/2022,07:02:35,0.058,0.0,0.03,0.001
13/09/2022,07:03:35,0.061,0.0,0.031,0.001
13/09/2022,07:04:35,0.070,0.0,0.032,0.001
13/09/2022,07:05:35,0.076,0.0,0.034,0.002
13/09/2022,07:06:44,0.077,0.0,0.035,0.001
13/09/2022,07:07:35,0.079,0.0,0.036,0.001
13/09/2022,07:08:35,0.079,0.0,0.037,0.001
13/09/2022,07:09:35,0.081,0.0,0.039,0.002
13/09/2022,07:10:43,0.085,0.0,0.04,0.001
13/09/2022,07:11:35,0.087,0.0,0.042,0.002
13/09/2022,07:12:35,0.088,0.0,0.043,0.001
13/09/2022,07:13:43,0.089,0.0,0.045,0.002
13/09/2022,07:14:35,0.088,0.0,0.046,0.001
13/09/2022,07:15:35,0.088,0.0,0.047,0.001
13/09/2022,07:16:36,0.085,0.0,0.049,0.002
13/09/2022,07:17:36,0.087,0.0,0.05,0.001
13/09/2022,07:18:35,0.089,0.0,0.052,0.002
13/09/2022,07:19:35,0.090,0.0,0.053,0.001
13/09/2022,07:20:35,0.091,0.0,0.055,0.002
13/09/2022,07:21:35,0.092,0.0,0.056,0.001
13/09/2022,07:22:35,0.092,0.0,0.058,0.002
13/09/2022,07:23:35,0.094,0.0,0.059,0.001
13/09/2022,07:24:35,0.095,0.0,0.061,0.002
13/09/2022,07:25:35,0.097,0.0,0.063,0.002
13/09/2022,07:26:35,0.098,0.0,0.064,0.001
13/09/2022,07:27:35,0.100,0.0,0.066,0.002
13/09/2022,07:28:35,0.101,0.0,0.067,0.001
13/09/2022,07:29:35,0.103,0.0,0.069,0.002
13/09/2022,07:30:35,0.104,0.0,0.071,0.002
13/09/2022,07:31:35,0.105,0.0,0.073,0.002
13/09/2022,07:32:44,0.106,0.0,0.075,0.002
13/09/2022,07:33:35,0.107,0.0,0.076,0.001
13/09/2022,07:34:35,0.107,0.0,0.078,0.002
13/09/2022,07:35:35,0.108,0.0,0.08,0.002
13/09/2022,07:36:35,0.108,0.0,0.082,0.002
13/09/2022,07:37:35,0.110,0.0,0.083,0.001
13/09/2022,07:38:36,0.111,0.0,0.085,0.002
13/09/2022,07:39:43,0.113,0.0,0.087,0.002
13/09/2022,07:40:35,0.114,0.0,0.089,0.002
13/09/2022,07:41:35,0.116,0.0,0.091,0.002
13/09/2022,07:42:35,0.119,0.0,0.093,0.002
13/09/2022,07:43:35,0.123,0.0,0.095,0.002
13/09/2022,07:44:35,0.124,0.0,0.097,0.002
13/09/2022,07:45:35,0.125,0.0,0.099,0.002
13/09/2022,07:46:35,0.125,0.0,0.101,0.002
13/09/2022,07:47:35,0.125,0.0,0.103,0.002
13/09/2022,07:48:35,0.125,0.0,0.105,0.002
13/09/2022,07:49:35,0.125,0.0,0.107,0.002
13/09/2022,07:50:35,0.124,0.0,0.109,0.002
13/09/2022,07:51:43,0.124,0.0,0.112,0.003
13/09/2022,07:52:35,0.124,0.0,0.114,0.002
13/09/2022,07:53:35,0.125,0.0,0.116,0.002
13/09/2022,07:54:35,0.127,0.0,0.118,0.002
13/09/2022,07:55:35,0.129,0.0,0.12,0.002
13/09/2022,07:56:36,0.132,0.0,0.122,0.002
13/09/2022,07:57:35,0.133,0.0,0.124,0.002
13/09/2022,07:58:35,0.135,0.0,0.127,0.003
13/09/2022,07:59:35,0.139,0.0,0.129,0.002
13/09/2022,08:00:35,0.140,0.0,0.131,0.002
13/09/2022,08:01:35,0.143,0.0,0.133,0.002
13/09/2022,08:02:35,0.145,0.0,0.136,0.003
13/09/2022,08:03:35,0.147,0.0,0.138,0.002
13/09/2022,08:04:35,0.150,0.0,0.141,0.003
13/09/2022,08:05:26,0.152,0.0,0.143,0.002
13/09/2022,08:06:36,0.156,0.0,0.146,0.003
13/09/2022,08:07:35,0.158,0.0,0.149,0.003
13/09/2022,08:08:35,0.162,0.0,0.151,0.002
13/09/2022,08:09:43,0.164,0.0,0.154,0.003
13/09/2022,08:10:35,0.168,0.0,0.157,0.003
13/09/2022,08:11:35,0.170,0.0,0.159,0.002
13/09/2022,08:12:36,0.172,0.0,0.162,0.003
13/09/2022,08:13:35,0.175,0.0,0.165,0.003
13/09/2022,08:14:44,0.179,0.0,0.169,0.004
13/09/2022,08:15:35,0.180,0.0,0.171,0.002
13/09/2022,08:16:35,0.181,0.0,0.174,0.003
13/09/2022,08:17:35,0.183,0.0,0.177,0.003
13/09/2022,08:18:35,0.184,0.0,0.18,0.003
13/09/2022,08:19:35,0.185,0.0,0.183,0.003
13/09/2022,08:20:35,0.187,0.0,0.186,0.003
13/09/2022,08:21:35,0.186,0.0,0.189,0.003
13/09/2022,08:22:35,0.187,0.0,0.193,0.004
13/09/2022,08:23:35,0.188,0.0,0.196,0.003
13/09/2022,08:24:35,0.188,0.0,0.199,0.003
13/09/2022,08:25:35,0.188,0.0,0.202,0.003
13/09/2022,08:26:35,0.188,0.0,0.205,0.003
13/09/2022,08:27:35,0.188,0.0,0.208,0.003
13/09/2022,08:28:35,0.188,0.0,0.211,0.003
13/09/2022,08:29:43,0.188,0.0,0.215,0.004
13/09/2022,08:30:36,0.188,0.0,0.218,0.003
13/09/2022,08:31:35,0.188,0.0,0.221,0.003
13/09/2022,08:32:35,0.188,0.0,0.224,0.003
13/09/2022,08:33:35,0.188,0.0,0.227,0.003
13/09/2022,08:34:35,0.189,0.0,0.23,0.003
13/09/2022,08:35:35,0.190,0.0,0.233,0.003
13/09/2022,08:36:35,0.189,0.0,0.236,0.003
13/09/2022,08:37:35,0.191,0.0,0.24,0.004
13/09/2022,08:38:35,0.192,0.0,0.243,0.003
13/09/2022,08:39:35,0.193,0.0,0.246,0.003
13/09/2022,08:40:35,0.195,0.0,0.249,0.003
13/09/2022,08:41:35,0.197,0.0,0.253,0.004
13/09/2022,08:42:35,0.199,0.0,0.256,0.003
13/09/2022,08:43:35,0.201,0.0,0.259,0.003
13/09/2022,08:44:35,0.203,0.0,0.263,0.004
13/09/2022,08:45:35,0.206,0.0,0.266,0.003
13/09/2022,08:46:35,0.210,0.0,0.269,0.003
13/09/2022,08:47:35,0.214,0.0,0.273,0.004
13/09/2022,08:48:35,0.216,0.0,0.277,0.004
13/09/2022,08:49:35,0.221,1.0,0.28,0.003
13/09/2022,08:50:35,0.224,1.0,0.284,0.004
13/09/2022,08:51:36,0.229,1.0,0.288,0.004
13/09/2022,08:52:45,0.234,1.0,0.292,0.004
13/09/2022,08:53:34,0.238,1.0,0.295,0.003
13/09/2022,08:54:49,0.244,1.0,0.301,0.006
13/09/2022,08:56:35,0.252,1.0,0.308,0.007
13/09/2022,08:57:35,0.255,1.0,0.312,0.004
13/09/2022,08:58:35,0.260,1.0,0.316,0.004
13/09/2022,08:59:35,0.265,1.0,0.321,0.005
13/09/2022,09:00:35,0.270,1.0,0.325,0.004
13/09/2022,09:01:36,0.272,1.0,0.33,0.005
13/09/2022,09:02:36,0.276,1.0,0.334,0.004
13/09/2022,09:03:35,0.281,1.0,0.339,0.005
13/09/2022,09:04:35,0.285,1.0,0.344,0.005
13/09/2022,09:05:35,0.288,1.0,0.348,0.004
13/09/2022,09:06:36,0.292,1.0,0.353,0.005
13/09/2022,09:07:44,0.295,1.0,0.359,0.006
13/09/2022,09:08:35,0.297,1.0,0.363,0.004
13/09/2022,09:09:43,0.302,1.0,0.369,0.006
13/09/2022,09:10:36,0.305,1.0,0.373,0.004
13/09/2022,09:11:35,0.306,1.0,0.378,0.005
13/09/2022,09:12:35,0.309,1.0,0.383,0.005
13/09/2022,09:13:44,0.311,1.0,0.389,0.006
13/09/2022,09:14:35,0.313,1.0,0.394,0.005
13/09/2022,09:15:35,0.313,1.0,0.399,0.005
13/09/2022,09:16:36,0.314,1.0,0.404,0.005
13/09/2022,09:17:35,0.315,1.0,0.409,0.005
13/09/2022,09:18:35,0.315,1.0,0.414,0.005
13/09/2022,09:19:35,0.318,1.0,0.42,0.006
13/09/2022,09:20:37,0.318,1.0,0.425,0.005
13/09/2022,09:21:36,0.319,1.0,0.431,0.006
13/09/2022,09:22:35,0.319,1.0,0.436,0.005
13/09/2022,09:23:36,0.321,1.0,0.441,0.005
13/09/2022,09:24:35,0.321,1.0,0.447,0.006
13/09/2022,09:25:43,0.320,1.0,0.453,0.006
13/09/2022,09:26:35,0.319,1.0,0.457,0.004
13/09/2022,09:27:35,0.318,1.0,0.463,0.006
13/09/2022,09:28:43,0.318,1.0,0.469,0.006
13/09/2022,09:29:36,0.317,1.0,0.473,0.004
13/09/2022,09:30:35,0.315,1.0,0.478,0.005
13/09/2022,09:31:35,0.315,1.0,0.484,0.006
13/09/2022,09:32:35,0.314,1.0,0.489,0.005
13/09/2022,09:33:35,0.312,1.0,0.494,0.005
13/09/2022,09:34:35,0.310,1.0,0.499,0.005
13/09/2022,09:35:36,0.308,1.0,0.504,0.005
13/09/2022,09:36:35,0.305,1.0,0.509,0.005
13/09/2022,09:37:35,0.302,1.0,0.515,0.006
13/09/2022,09:38:35,0.299,1.0,0.519,0.004
13/09/2022,09:39:35,0.298,1.0,0.525,0.006
13/09/2022,09:40:35,0.298,1.0,0.529,0.004
13/09/2022,09:41:35,0.297,1.0,0.534,0.005
13/09/2022,09:42:35,0.298,1.0,0.539,0.005
13/09/2022,09:43:35,0.300,1.0,0.544,0.005
13/09/2022,09:44:35,0.303,1.0,0.549,0.005
13/09/2022,09:45:36,0.308,1.0,0.555,0.006
13/09/2022,09:46:35,0.314,1.0,0.56,0.005
13/09/2022,09:47:35,0.321,1.0,0.565,0.005
13/09/2022,09:48:36,0.330,1.0,0.57,0.005
13/09/2022,09:49:35,0.339,1.0,0.576,0.006
13/09/2022,09:50:35,0.350,1.0,0.582,0.006
13/09/2022,09:51:51,0.364,1.0,0.589,0.007
13/09/2022,09:53:36,0.383,1.0,0.6,0.011
13/09/2022,09:54:35,0.395,1.0,0.607,0.007
13/09/2022,09:55:35,0.410,1.0,0.613,0.006
13/09/2022,09:56:35,0.428,1.0,0.62,0.007
13/09/2022,09:57:35,0.450,1.0,0.628,0.008
13/09/2022,09:58:35,0.476,1.0,0.635,0.007
13/09/2022,09:59:35,0.495,1.0,0.643,0.008
13/09/2022,10:00:35,0.512,1.0,0.652,0.009
13/09/2022,10:01:35,0.517,1.0,0.66,0.008
13/09/2022,10:02:35,0.536,1.0,0.669,0.009
13/09/2022,10:03:35,0.553,1.0,0.678,0.009
13/09/2022,10:04:35,0.560,1.0,0.688,0.01
13/09/2022,10:05:36,0.573,1.0,0.697,0.009